Regional Weather Roundup
Issued by NWS

Home | Current Version | Previous Version | Graphics & Text | Print | Product List | Glossary On
Versions: 1 2 3 4 5 6 7 8 9 10 11 12 13 14 15 16 17 18 19 20 21 22 23 24 25 26 27 28 29 30 31 32 33 34 35 36 37 38 39 40 41 42 43 44 45 46 47 48 49 50
000
ASUS43 KMPX 280601
RWRMN
WEATHER ROUNDUP FOR MINNESOTA
NATIONAL WEATHER SERVICE TWIN CITIES/CHANHASSEN MN
100 AM CDT WED JUN 28 2017


NOTE: "FAIR" INDICATES FEW OR NO CLOUDS BELOW 12,000 FEET WITH NO
SIGNIFICANT WEATHER AND/OR OBSTRUCTIONS TO VISIBILITY. N/A MEANS
CURRENT SKY AND/OR WEATHER CONDITIONS ARE NOT AVAILABLE.

MNZ060>063-068>070-280700-
   Twin Cities Metro

CITY           SKY/WX    TMP DP  RH WIND       PRES   REMARKS
TWIN CITIES    CLOUDY    67  46  47 SE13      29.75F
6HR MIN TEMP:  67; 6HR MAX TEMP:  75;

ST PAUL        CLOUDY    65  48  54 S10       29.75F
CRYSTAL        PTCLDY    67  44  43 SE13      29.72F
BLAINE         CLOUDY    70  46  43 SE12      29.73F
LAKEVILLE      CLOUDY    63  48  59 SE6       29.77F
EDEN PRAIRIE   PTCLDY    67  47  48 SE12      29.74F
6HR MIN TEMP:  67; 6HR MAX TEMP:  75; 6HR PCP: TRACE;

SOUTH ST PAUL  CLOUDY    66  46  48 S7        29.76F
LAKE ELMO      FAIR      64  46  52 SE8       29.77F
$$
MNZ001>005-007-008-013>017-022>024-027-028-280700-
   Northwest Minnesota

CITY           SKY/WX    TMP DP  RH WIND       PRES   REMARKS
BEMIDJI        CLOUDY    60  51  73 SE8       29.68F
HALLOCK        CLOUDY    66  48  52 SE8       29.57F
ROSEAU         CLOUDY    66  50  55 S10       29.62F
WARROAD        CLOUDY    64  52  63 SE10      29.65F
CROOKSTON      CLOUDY    66  50  55 SE10      29.58F
FOSSTON        MOCLDY    61  46  59 SE8       29.63F
DETROIT LAKES  CLOUDY    63  52  67 SE13      29.62F
MOORHEAD       CLOUDY    68  50  52 SE12      29.55F THUNDER
PARK RAPIDS    CLOUDY    58  48  69 SE14      29.65F
MAHNOMEN       FAIR      63  50  61 SE12G18   29.61F
$$
MNZ006-009>011-018-025>026-280700-
   North Central Minnesota

CITY           SKY/WX    TMP DP  RH WIND       PRES   REMARKS
BAUDETTE       MOCLDY    59  49  69 SE8       29.68F
FLAG ISLAND    PTCLDY    66  55  68 S16       29.66F
INTL FALLS     CLOUDY    53  46  77 SE5       29.74F
6HR MIN TEMP:  51; 6HR MAX TEMP:  72;

WASKISH        PTCLDY    63  48  59 SE7       29.69F
BIG FORK       CLOUDY    61  46  59 SE3       29.75F
LONGVILLE      LGT RAIN  55  54  94 CALM      29.73F
GRAND RAPIDS   MOCLDY    59  45  59 SE5       29.78F
CRANE LAKE     CLOUDY    46  46 100 CALM      29.80F
ORR            CLOUDY    55  43  62 S6        29.74F
COOK           PTCLDY    57  45  62 S7        29.78S
WALKER         CLOUDY    59  52  78 SE7       29.69F
$$
MNZ012-019>021-037-280700-
   Northeast Minnesota

CITY           SKY/WX    TMP DP  RH WIND       PRES   REMARKS
DULUTH         CLOUDY    59  46  62 S9        29.81F
6HR MIN TEMP:  57; 6HR MAX TEMP:  71;

ELY            CLEAR     55  45  67 SE3       29.80S
HIBBING        CLOUDY    44  43  96 CALM      29.79F
EVELETH        CLEAR     47  43  87 CALM      29.81F
DULUTH HARBOR  MOCLDY    61  50  67 CALM      29.81F
TWO HARBORS    CLEAR     54  48  82 CALM      29.81F
SILVER BAY     CLEAR     48  48 100 CALM      29.81F
GRAND MARAIS     N/A     47  44  90 CALM      29.82R
G MARAIS ARPRT CLOUDY    57  43  58 S3        29.86S
$$
MNZ029>031-032-039>041-046>048-054>057-064-280700-
   West Central Minnesota

CITY           SKY/WX    TMP DP  RH WIND       PRES   REMARKS
FERGUS FALLS   CLOUDY    70  52  52 SE17      29.55F
WHEATON        CLOUDY    63  55  77 SE16      29.55F
MORRIS         CLOUDY    70  52  52 SE21      29.59F
ALEXANDRIA     CLOUDY    65  53  65 S17       29.65F
ELBOW LAKE     FAIR      68  51  54 E18       29.59F
WADENA         CLOUDY    63  50  63 SE14G20   29.65F
GLENWOOD       CLOUDY    66  52  59 SE16      29.67F
APPLETON       CLOUDY    72  48  43 SE13G21   29.59S
BENSON         PTCLDY    70  50  49 S16G23    29.63F
ORTONVILLE     CLOUDY    70  54  56 SE16G22   29.57F
MADISON        CLOUDY    73  55  53 SE18G25   29.58F
WILLMAR        CLOUDY    70  52  52 SE13      29.67F
$$
MNZ033>034-036-042>043-049>051-058-059-280700-
   Central Minnesota

CITY           SKY/WX    TMP DP  RH WIND       PRES   REMARKS
ST CLOUD       MOCLDY    62  51  67 SE6       29.71F
6HR MIN TEMP:  61; 6HR MAX TEMP:  73; 6HR PCP:  0.02;

SAUK CENTRE    CLOUDY    64  52  65 SE12      29.67F
PAYNESVILLE    CLOUDY    67  48  50 S13G18    29.70F
AITKIN         LGT RAIN  63  52  67 S8        29.74F
PINE RIVER     CLOUDY    57  52  82 E9        29.74F
BRAINERD       CLOUDY    59  51  75 VRB5      29.74F
STAPLES        CLOUDY    59  50  72 SE7       29.67F
LONG PRAIRIE   LGT RAIN  59  52  77 E9        29.66F
LITTLE FALLS   MOCLDY    61  48  63 E6        29.71F
LITCHFIELD     CLOUDY    70  54  56 SE8       29.71F
BUFFALO        PTCLDY    66  46  48 SE10G17   29.71F
MAPLE LAKE     PTCLDY    67  50  56 S5        29.71F
HUTCHINSON     CLOUDY    67  52  57 SE9       29.72F
$$
MNZ037-044-045-052-053-280700-
   East Central Minnesota

CITY           SKY/WX    TMP DP  RH WIND       PRES   REMARKS
PRINCETON      CLOUDY    64  48  55 CALM      29.74F
MORA           LGT RAIN  59  46  63 SE5       29.80F
CAMBRIDGE      CLOUDY    68  50  52 E3        29.74F
RUSH CITY      DRIZZLE   61  48  63 SE5       29.78F
MOOSE LAKE     CLOUDY    61  45  55 S5        29.77F
HINCKLEY       FAIR      61  48  63 CALM      29.80F
CLOQUET        MOCLDY    57  43  58 CALM      29.81F
MCGREGOR       CLOUDY    61  46  59 S5        29.77F
$$
MNZ071>073-080-081-089-090-097-098-280700-
   Southwest Minnesota

CITY           SKY/WX    TMP DP  RH WIND       PRES   REMARKS
MONTEVIDEO     CLOUDY    70  52  52 S15G21    29.62F
GRANITE FALLS  CLOUDY    71  57  62 SE15G23   29.65F
CANBY          CLOUDY    71  62  71 SE17G23   29.59F
MARSHALL       LGT RAIN  67  63  87 S18       29.62F
REDWOOD FALLS  TSTM      66  54  65 SE14      29.67F
OLIVIA         CLOUDY    70  52  52 SE16      29.67F
PIPESTONE      CLOUDY    68  64  88 S16G29    29.65F
WINDOM         TSTM      66  63  88 NW14      29.73
WORTHINGTON    TSTM      67  63  87 SW12      29.69F
JACKSON        CLOUDY    70  59  68 S15G24    29.71R
TRACY          LGT RAIN  67  64  87 S16G24    29.65F
SLAYTON        TSTM      64  63  95 SE23G39   29.68F
$$
MNZ065>067-074>077-082>085-091>093-280700-
   South Central Minnesota

CITY           SKY/WX    TMP DP  RH WIND       PRES   REMARKS
MANKATO        CLOUDY    67  51  56 SE15      29.74F
NEW ULM        CLOUDY    66  50  55 SE12      29.72R
ST JAMES       CLOUDY    70  54  56 SE13G18   29.72R
FAIRMONT       CLOUDY    68  55  63 SE17G23   29.71F
GLENCOE        CLOUDY    68  53  58 SE8       29.70F
FARIBAULT      CLOUDY    66  48  52 SE10G18   29.76F
OWATONNA       CLEAR     66  50  55 S14G21    29.77F
WASECA         CLOUDY    64  46  52 SE15      29.77F
ALBERT LEA     CLOUDY    66  48  52 S17G23    29.77F
$$
MNZ078>079-086>088-094>096-280700-
   Southeast Minnesota

CITY           SKY/WX    TMP DP  RH WIND       PRES   REMARKS
ROCHESTER      CLOUDY    64  48  56 S13       29.83F
6HR MIN TEMP:  62; 6HR MAX TEMP:  72;

RED WING       PTCLDY    66  45  45 SE9       29.78F
STANTON        MOCLDY    66  47  48 SE10G16   29.76F
DODGE CENTER   PTCLDY    64  46  52 SE14      29.81F
WINONA         CLOUDY    63  46  55 SE6       29.85F
AUSTIN         PTCLDY    64  48  55 S12G20    29.81S
PRESTON        CLOUDY    63  46  55 SE12G21   29.84F
$$
ABBREVIATIONS USED IN REMARKS
   TC - TEMPERATURES IN CELSIUS
  WCI - WIND CHILL INDEX
   HX - HEAT INDEX
  VSB - VISIBILITY
$$




USA.gov is the U.S. government's official web portal to all federal, state and local government web resources and services.